Regional Weather Roundup
Issued by NWS

Home | Current Version | Previous Version | Graphics & Text | Print | Product List | Glossary Off
Versions: 1 2 3 4 5 6 7 8 9 10 11 12 13 14 15 16 17 18 19 20 21 22 23 24 25 26 27 28 29 30 31 32 33 34 35 36 37 38 39 40 41 42 43 44 45 46 47 48 49 50

000
ASUS43 KTOP 061459
RWRKS

WEATHER ROUNDUP FOR KANSAS
NATIONAL WEATHER SERVICE GOODLAND KS
900 AM CST FRI MAR 06 2015

NOTE:  "FAIR" INDICATES FEW OR NO CLOUDS BELOW 12,000 FEET WITH NO
SIGNIFICANT WEATHER AND/OR OBSTRUCTIONS TO VISIBILITY.

KSZ001>006-013>018-027>032-041>047-061600-
NORTHWEST KANSAS

CITY           SKY/WX    TMP DP  RH WIND       PRES   REMARKS
GOODLAND       SUNNY     39  21  48 SW10      30.28R WCI  32
HAYS           SUNNY     36  18  48 W6        30.31R
HILL CITY      SUNNY     36  21  54 W7        30.29R
RUSSELL        SUNNY     35  22  58 SW9       30.29R
$$

KSZ061>065-074>080-084>089-061600-
SOUTHWEST KANSAS

CITY           SKY/WX    TMP DP  RH WIND       PRES   REMARKS
DODGE CITY     SUNNY     34  23  64 SW8       30.33R
ELKHART          N/A     36  24  62 NW6         N/A
GARDEN CITY    SUNNY     32  24  72 W8        30.32R
GREAT BEND     SUNNY     37  25  60 SW8       30.32S
LIBERAL        SUNNY     34  27  75 NW10      30.36R WCI  26
$$

KSZ066>073-081>083-090>101-061600-
SOUTHEAST KANSAS

CITY           SKY/WX    TMP DP  RH WIND       PRES   REMARKS
CHANUTE        SUNNY     34  21  59 SW15      30.41R WCI  24
COFFEYVILLE    SUNNY     35  21  56 S14       30.45S WCI  26
HUTCHINSON     SUNNY     34  25  69 SW7       30.35R
MEDICINE LODGE   N/A     32  25  75 SW7       30.38R
NEWTON         SUNNY     34  21  60 SW14      30.36R WCI  24
PARSONS        SUNNY     35  22  58 SW10      30.44S WCI  27
WICHITA INTL   MOSUNNY   34  23  64 SW12      30.37R WCI  25
WICHITA JABRA  SUNNY     34  23  64 SW13      30.37R WCI  25
WINFIELD       SUNNY     35  23  61 SW17      30.42R WCI  25
$$

KSZ007>012-019>026-033>040-048>060-102>105-061600-
NORTHEAST KANSAS

CITY           SKY/WX    TMP DP  RH WIND       PRES   REMARKS
CONCORDIA      SUNNY     36  19  50 W12       30.28R WCI  28
EMPORIA        SUNNY     37  24  59 SW14      30.34R WCI  28
LAWRENCE       SUNNY     37  21  52 SW10      30.34R WCI  30
MANHATTAN      SUNNY     35  24  64 SW14      30.32R WCI  26
OLATHE IND     SUNNY     34  21  59 SW14G24   30.34R WCI  25
OLATHE EXE     SUNNY     35  21  56 SW13      30.32R WCI  26
SALINA         SUNNY     37  23  56 SW10      30.33R WCI  30
TOPEKA BILLARD SUNNY     37  21  52 SW10      30.33R WCI  30
TOPEKA FORBES  SUNNY     38  22  52 SW12      30.32R WCI  30
$$



USA.gov is the U.S. government's official web portal to all federal, state and local government web resources and services.